{"data":{"norad_id":63472,"epoch":"2026-05-25T03:13:43.303008Z","epoch_age_seconds":63563,"freshness":"FRESH","line1":"1 63472U 25070N   26145.13452897  .00009542  00000+0  35567-3 0  9991","line2":"2 63472  42.9990 188.4283 0001444 276.3126  83.7561 15.27592432 64663","mean_motion":15.27592432,"eccentricity":0.0001444,"inclination_deg":42.999,"raan_deg":188.4283,"arg_perigee_deg":276.3126,"mean_anomaly_deg":83.7561,"bstar":0.00035567,"rev_number":6466,"period_min":94.265981542909,"perigee_km":482.02112051484,"apogee_km":484.00262030861,"semimajor_km":6861.1488704117,"source":"CELESTRAK","updated_at":"2026-05-25T13:38:20.007247Z"}}